{"data":{"norad_id":47699,"intl_designator":"2021-015A","name":"AMAZONIA 1","alt_names":[],"object_type":"PAYLOAD","status":"ACTIVE","operator":null,"country":"BRAZ","launch_date":"2021-02-28","launch_site_code":"SRILR","launch_vehicle":null,"mission":null,"orbit_class":"UNKNOWN","rcs_meters":null,"size_class":null,"mass_kg":null,"dimensions":null,"purposes":[],"wikipedia_slug":null,"has_3d_model":false,"image_url":null,"decayed_at":null,"tle_current":{"epoch":"2026-09-20T22:09:01.284192Z","epoch_age_seconds":45779,"freshness":"FRESH","line1":"1 47699U 21015A   26263.92293153  .00000085  00000+0  40045-4 0  9996","line2":"2 47699  98.4276 335.1979 0001847 270.7058  89.3919 14.40844646292439","mean_motion":14.40844646,"eccentricity":0.0001847,"inclination_deg":98.4276,"raan_deg":335.1979,"arg_perigee_deg":270.7058,"mean_anomaly_deg":89.3919,"bstar":4.0045e-5,"rev_number":29243,"period_min":99.94137841284,"perigee_km":754.3914891026,"apogee_km":757.02673185581,"semimajor_km":7133.8461104792,"source":"CELESTRAK","updated_at":"2026-09-21T09:00:07.562532Z"}}}